Location: ??? ????
(38.0580°N, 23.1536°E)
Time: 22:48:09
(UTC+00:00)

Cosmos 1076 Rocket - Pass Details

Date: 13 December 2025
Orbit: 582 x 603 km, 82.5° (Epoch: 14 January)

Event Time Altitude Azimuth Distance (km) Brightness Sun altitude
Rises 16:22:13 0° 352° (N) 2,854 6.9 -14.1°
Reaches altitude 10° 16:24:26 10° 351° (N) 1,950 6.0 -14.5°
Maximum altitude 16:28:45 84° 265° (W) 611 3.5 -15.4°
Drops below altitude 10° 16:33:03 10° 176° (S) 1,939 6.3 -16.2°
Sets 16:35:14 0° 176° (S) 2,838 7.1 -16.6°
